Location: El Castaño
(10.3135°N, 67.5574°W)
Time: 04:18:42
(UTC+00:00)

Cosmos 1500 Rocket - Pass Details

Date: 13 June 2024
Orbit: 600 x 626 km, 82.5° (Epoch: 19 July)

Event Time Altitude Azimuth Distance (km) Brightness Sun altitude
Rises 23:35:26 0° 5° (N) 2,855 7.3 -10.5°
Reaches altitude 10° 23:37:42 10° 11° (NNE) 1,956 6.3 -11.0°
Maximum altitude 23:41:52 47° 85° (E) 817 3.8 -11.9°
Enters shadow 23:46:00 10° 159° (SSE) 1,951 5.7 -12.8°
